User: anonymous   Login
Location: Unspecified
(0.0000°N, 0.0000°E)
Time: 08:43:24
(UTC+00:00)
Language:

COSMOS 2497 - Orbit

View from above orbital plane
View from above orbital plane
View from above satellite
View from above satellite

Ground track
Ground track

The orbit data is extracted from the following two-line orbital elements,

1 39762U 14028B   18350.75327643 +.00000033 +00000-0 +17030-3 0  9996
2 39762 082.4522 025.2905 0019123 280.0215 079.8706 12.42891102207274
Epoch (UTC): 16 December 2018 18:04:43
Eccentricity: 0.0019123
inclination: 82.4522°
perigee height: 1479 km
apogee height: 1509 km
right ascension of ascending node: 25.2905°
argument of perigee: 280.0215°
revolutions per day: 12.42891102
mean anomaly at epoch: 79.8706°
orbit number at epoch: 20727

The dashed part of the orbit path shows where the satellite is in the earth's shadow,  

DLR